Regional Weather Roundup
Issued by NWS

Home | Current Version | Previous Version | Graphics & Text | Print | Product List | Glossary Off
Versions: 1 2 3 4 5 6 7 8 9 10 11 12 13 14 15 16 17 18 19 20 21 22 23 24 25 26 27 28 29 30 31 32 33 34 35 36 37 38 39 40 41 42 43 44 45 46 47 48 49 50

000
ASUS43 KLSX 300607
RWRMO

WEATHER SUMMARY FOR MISSOURI
NATIONAL WEATHER SERVICE SPRINGFIELD MO
100 AM CDT SAT AUG 30 2014

NOTE: "FAIR" INDICATES FEW OR NO CLOUDS BELOW 12,000 FEET WITH NO
       SIGNIFICANT WEATHER AND/OR OBSTRUCTIONS TO VISIBILITY.
       CURRENT SKY AND/OR WEATHER CONDITIONS ARE NOT AVAILABLE FOR
       CHILLICOTHE AND FARMINGTON.

MOZ001>031-035>038-043-044-053-054-300700-
...NORTHERN AND WESTERN MISSOURI...

CITY           SKY/WX    TMP DP  RH WIND       PRES   REMARKS
KANSAS CTY INT MOCLDY    71  68  90 SW9       29.88R
6HR MIN TEMP:  69; 6HR MAX TEMP:  77; 6HR PCP:  1.48;

KANSAS C DTWN  FAIR      73  69  87 CALM      29.87R
6HR MIN TEMP:  70; 6HR MAX TEMP:  83; 6HR PCP:  0.48;

LEE`S SUMMIT   FAIR      74  66  76 SW8       29.90R
6HR MIN TEMP:  71; 6HR MAX TEMP:  82; 6HR PCP:  0.22;

ST JOSEPH      FAIR      68  66  93 S3        29.86R
6HR MIN TEMP:  68; 6HR MAX TEMP:  80;

CHILLICOTHE      N/A     72  67  84 VRB7      29.88R
6HR MIN TEMP:  71; 6HR MAX TEMP:  79; 6HR PCP:  0.04;

KIRKSVILLE     FAIR      72  69  90 S9        29.87R
6HR MIN TEMP:  69; 6HR MAX TEMP:  78; 6HR PCP: TRACE;


$$
MOZ066>068-077>081-088>096-101>105-300700-
...SOUTHWEST MISSOURI...

CITY           SKY/WX    TMP DP  RH WIND       PRES   REMARKS
SPRINGFIELD    FAIR      73  68  84 S14       29.96R
6HR MIN TEMP:  73; 6HR MAX TEMP:  84;

JOPLIN         MOCLDY    75  67  76 S13       29.94R
6HR MIN TEMP:  74; 6HR MAX TEMP:  85;


$$
MOZ032>034-039>042-045>050-055>058-069>072-300700-
...CENTRAL MISSOURI...

CITY           SKY/WX    TMP DP  RH WIND       PRES   REMARKS
COLUMBIA       FAIR      71  69  93 S9        29.92R
6HR MIN TEMP:  71; 6HR MAX TEMP:  78;

JEFFERSON CITY FAIR      73  68  84 S3        29.91R
6HR MIN TEMP:  73; 6HR MAX TEMP:  78;

ROLLA          FAIR      71  66  84 S10       29.94S
6HR MIN TEMP:  71; 6HR MAX TEMP:  76; 6HR PCP: TRACE;

SEDALIA        FAIR      75  67  76 S10       29.91R
6HR MIN TEMP:  74; 6HR MAX TEMP:  82;

WHITEMAN AFB   FAIR      72  67  86 SW9       29.90R
OSAGE BEACH    FAIR      72  66  83 S7        29.94R

$$
MOZ051-052-059>065-300700-
...EAST CENTRAL MISSOURI...

CITY           SKY/WX    TMP DP  RH WIND       PRES   REMARKS
ST LOUIS INTL  CLOUDY    79  69  71 S8        29.92S
6HR MIN TEMP:  78; 6HR MAX TEMP:  86; 6HR PCP: TRACE;

SPIRIT OF STL  FAIR      77  68  73 S5        29.90S
6HR MIN TEMP:  75; 6HR MAX TEMP:  78; 6HR PCP: TRACE;

ST CHARLES     FAIR      75  70  84 S8        29.90S
6HR MIN TEMP:  74; 6HR MAX TEMP:  77;


$$
MOZ072>076-082>087-097>100-106>115-300700-
...SOUTH CENTRAL AND SOUTHEAST MISSOURI...

CITY           SKY/WX    TMP DP  RH WIND       PRES   REMARKS
CAPE GIRARDEAU FAIR      73  70  90 S5        29.97F
6HR MIN TEMP:  72; 6HR MAX TEMP:  77; 6HR PCP:  0.16;

FARMINGTON     MOCLDY    72  68  88 S9        29.99S
6HR MIN TEMP:  72; 6HR MAX TEMP:  81;

POPLAR BLUFF   FAIR      72  69  90 SW3       29.97S
6HR MIN TEMP:  72; 6HR MAX TEMP:  81; 6HR PCP:  0.67;

WEST PLAINS    CLOUDY    72  68  87 S6        30.01R
6HR MIN TEMP:  71; 6HR MAX TEMP:  76; 6HR PCP:  0.01;


$$


USA.gov is the U.S. government's official web portal to all federal, state and local government web resources and services.